• In Uzbekistan
  • List of Countries
  • For 7 days
  • Water Temperature
  • Satellite Maps
  • Weather Map
  • Weather Widgets
  • user-avatar
    Login

    Hourly Weather Salawaj

    Today, 22 February, Thursday

    Time Temperature Precipitation Wind Pressure Humidity
    00:00 +26°C° 0 mm 1 mps 741 mmHg 76%
    01:00 +26°C° 0 mm 1 mps 742 mmHg 79%
    02:00 +25°C° 0.1 mm 1 mps 742 mmHg 79%
    03:00 +25°C° 0.1 mm 1 mps 741 mmHg 80%
    04:00 +25°C° 0.1 mm 1 mps 741 mmHg 81%
    05:00 +25°C° 0 mm 1 mps 742 mmHg 81%
    06:00 +25°C° 0 mm 1 mps 742 mmHg 81%
    07:00 +25°C° 0 mm 1 mps 742 mmHg 81%
    08:00 +27°C° 0 mm 0 mps 742 mmHg 69%
    09:00 +30°C° 0 mm 0 mps 743 mmHg 56%
    10:00 +33°C° 0 mm 0 mps 743 mmHg 44%
    11:00 +34°C° 0.1 mm 0 mps 742 mmHg 43%
    12:00 +37°C° 0.1 mm 1 mps 742 mmHg 42%
    13:00 +37°C° 0.1 mm 1 mps 741 mmHg 41%
    14:00 +36°C° 0.6 mm 1 mps 741 mmHg 46%
    15:00 +35°C° 0.6 mm 1 mps 740 mmHg 51%
    16:00 +34°C° 0.6 mm 2 mps 740 mmHg 56%
    17:00 +31°C° 0.8 mm 1 mps 740 mmHg 64%
    18:00 +29°C° 0.8 mm 1 mps 741 mmHg 72%
    19:00 +27°C° 0.8 mm 1 mps 741 mmHg 79%
    20:00 +26°C° 0.2 mm 1 mps 742 mmHg 82%
    21:00 +26°C° 0.2 mm 1 mps 742 mmHg 85%
    22:00 +25°C° 0.2 mm 1 mps 743 mmHg 88%
    23:00 +25°C° 0.1 mm 1 mps 743 mmHg 89%

    Tomorrow, 23 February, Friday

    Time Temperature Precipitation Wind Pressure Humidity
    00:00 +25°C° 0.1 mm 1 mps 743 mmHg 89%
    01:00 +24°C° 0.1 mm 1 mps 743 mmHg 90%
    02:00 +24°C° 0 mm 1 mps 743 mmHg 91%
    03:00 +24°C° 0 mm 1 mps 742 mmHg 91%
    04:00 +24°C° 0 mm 1 mps 742 mmHg 92%
    05:00 +24°C° 0 mm 1 mps 743 mmHg 90%
    06:00 +24°C° 0 mm 1 mps 743 mmHg 89%
    07:00 +24°C° 0 mm 1 mps 743 mmHg 87%
    08:00 +27°C° 0 mm 1 mps 744 mmHg 77%
    09:00 +29°C° 0 mm 1 mps 744 mmHg 66%
    10:00 +32°C° 0 mm 1 mps 745 mmHg 55%
    11:00 +32°C° 0.7 mm 1 mps 744 mmHg 55%
    12:00 +33°C° 0.7 mm 1 mps 743 mmHg 55%
    13:00 +33°C° 0.7 mm 1 mps 743 mmHg 55%
    14:00 +33°C° 0.9 mm 1 mps 742 mmHg 56%
    15:00 +33°C° 0.9 mm 1 mps 742 mmHg 57%
    16:00 +32°C° 0.9 mm 1 mps 741 mmHg 58%
    17:00 +30°C° 0.3 mm 1 mps 742 mmHg 64%
    18:00 +29°C° 0.3 mm 1 mps 742 mmHg 71%
    19:00 +27°C° 0.3 mm 1 mps 742 mmHg 77%
    20:00 +26°C° 0.1 mm 1 mps 743 mmHg 80%
    21:00 +26°C° 0.1 mm 1 mps 744 mmHg 83%
    22:00 +25°C° 0.1 mm 1 mps 744 mmHg 86%
    23:00 +25°C° 0 mm 1 mps 744 mmHg 86%

    Day after tomorrow, 24 February, Saturday

    Time Temperature Precipitation Wind Pressure Humidity
    00:00 +24°C° 0 mm 1 mps 744 mmHg 87%
    01:00 +24°C° 0 mm 1 mps 743 mmHg 88%
    02:00 +24°C° 0 mm 1 mps 743 mmHg 87%
    03:00 +24°C° 0 mm 1 mps 743 mmHg 87%
    04:00 +24°C° 0 mm 1 mps 743 mmHg 87%
    05:00 +24°C° 0 mm 1 mps 743 mmHg 86%
    06:00 +24°C° 0 mm 1 mps 744 mmHg 85%
    07:00 +25°C° 0 mm 1 mps 744 mmHg 83%
    08:00 +28°C° 0 mm 1 mps 745 mmHg 70%
    09:00 +29°C° 0 mm 0 mps 746 mmHg 57%
    10:00 +33°C° 0 mm 0 mps 746 mmHg 44%
    11:00 +36°C° 0.1 mm 1 mps 745 mmHg 42%
    12:00 +37°C° 0.1 mm 1 mps 744 mmHg 40%
    13:00 +39°C° 0.1 mm 1 mps 743 mmHg 38%
    14:00 +36°C° 0.4 mm 1 mps 743 mmHg 43%
    15:00 +35°C° 0.4 mm 1 mps 742 mmHg 49%
    16:00 +33°C° 0.4 mm 1 mps 741 mmHg 55%
    17:00 +31°C° 0.6 mm 1 mps 742 mmHg 62%
    18:00 +30°C° 0.6 mm 1 mps 742 mmHg 69%
    19:00 +28°C° 0.6 mm 1 mps 743 mmHg 76%
    20:00 +27°C° 0.2 mm 1 mps 743 mmHg 79%
    21:00 +27°C° 0.2 mm 1 mps 744 mmHg 82%
    22:00 +26°C° 0.2 mm 1 mps 744 mmHg 85%
    23:00 +26°C° 0 mm 1 mps 744 mmHg 86%

    25 February, Sunday

    Time Temperature Precipitation Wind Pressure Humidity
    00:00 +25°C° 0 mm 1 mps 743 mmHg 88%
    01:00 +25°C° 0 mm 1 mps 743 mmHg 90%
    02:00 +25°C° 0 mm 1 mps 743 mmHg 91%
    03:00 +24°C° 0 mm 1 mps 743 mmHg 91%
    04:00 +24°C° 0 mm 1 mps 743 mmHg 92%
    05:00 +24°C° 0 mm 1 mps 743 mmHg 90%
    06:00 +25°C° 0 mm 1 mps 744 mmHg 89%
    07:00 +25°C° 0 mm 1 mps 744 mmHg 88%
    08:00 +28°C° 0 mm 1 mps 745 mmHg 75%
    09:00 +31°C° 0 mm 1 mps 745 mmHg 62%
    10:00 +34°C° 0 mm 1 mps 745 mmHg 49%
    11:00 +35°C° 0 mm 1 mps 744 mmHg 45%
    12:00 +37°C° 0 mm 1 mps 743 mmHg 42%
    13:00 +39°C° 0 mm 1 mps 742 mmHg 38%
    14:00 +36°C° 0.4 mm 1 mps 742 mmHg 44%
    15:00 +35°C° 0.4 mm 1 mps 741 mmHg 50%
    16:00 +34°C° 0.4 mm 2 mps 741 mmHg 56%
    17:00 +31°C° 0.3 mm 1 mps 741 mmHg 63%
    18:00 +29°C° 0.3 mm 1 mps 742 mmHg 70%
    19:00 +27°C° 0.3 mm 1 mps 742 mmHg 77%
    20:00 +27°C° 0 mm 1 mps 743 mmHg 80%
    21:00 +26°C° 0 mm 1 mps 743 mmHg 83%
    22:00 +25°C° 0 mm 1 mps 744 mmHg 86%
    23:00 +25°C° 0 mm 1 mps 743 mmHg 88%

    26 February, Monday

    Time Temperature Precipitation Wind Pressure Humidity
    00:00 +24°C° 0 mm 1 mps 743 mmHg 89%
    01:00 +24°C° 0 mm 1 mps 743 mmHg 90%
    02:00 +24°C° 0 mm 1 mps 742 mmHg 90%
    03:00 +24°C° 0 mm 1 mps 742 mmHg 90%
    04:00 +23°C° 0 mm 1 mps 742 mmHg 90%
    05:00 +23°C° 0 mm 1 mps 743 mmHg 89%
    06:00 +24°C° 0 mm 1 mps 743 mmHg 87%
    07:00 +24°C° 0 mm 1 mps 744 mmHg 86%
    08:00 +27°C° 0 mm 1 mps 744 mmHg 73%
    09:00 +30°C° 0 mm 1 mps 744 mmHg 60%
    10:00 +33°C° 0 mm 1 mps 744 mmHg 48%
    11:00 +34°C° 0 mm 1 mps 743 mmHg 43%
    12:00 +36°C° 0 mm 1 mps 742 mmHg 38%
    13:00 +37°C° 0 mm 1 mps 741 mmHg 34%
    14:00 +37°C° 0 mm 1 mps 741 mmHg 36%
    15:00 +36°C° 0 mm 1 mps 741 mmHg 38%
    16:00 +36°C° 0 mm 1 mps 740 mmHg 39%
    17:00 +33°C° 0 mm 1 mps 741 mmHg 48%
    18:00 +31°C° 0 mm 1 mps 741 mmHg 57%
    19:00 +28°C° 0 mm 1 mps 741 mmHg 66%
    20:00 +27°C° 0 mm 1 mps 742 mmHg 71%
    21:00 +26°C° 0 mm 1 mps 742 mmHg 75%
    22:00 +25°C° 0 mm 1 mps 742 mmHg 80%
    23:00 +25°C° 0 mm 1 mps 742 mmHg 82%

    27 February, Tuesday

    Time Temperature Precipitation Wind Pressure Humidity
    00:00 +24°C° 0 mm 1 mps 742 mmHg 83%
    01:00 +24°C° 0 mm 1 mps 742 mmHg 85%
    02:00 +24°C° 0 mm 1 mps 742 mmHg 85%
    03:00 +23°C° 0 mm 1 mps 742 mmHg 86%
    04:00 +23°C° 0 mm 1 mps 742 mmHg 86%
    05:00 +23°C° 0.1 mm 1 mps 742 mmHg 85%
    06:00 +24°C° 0.1 mm 1 mps 742 mmHg 84%
    07:00 +24°C° 0.1 mm 1 mps 743 mmHg 82%
    08:00 +26°C° 0 mm 0 mps 743 mmHg 69%
    09:00 +29°C° 0 mm 0 mps 743 mmHg 55%
    10:00 +33°C° 0 mm 0 mps 743 mmHg 42%
    11:00 +34°C° 0 mm 0 mps 743 mmHg 41%
    12:00 +36°C° 0 mm 1 mps 742 mmHg 40%
    13:00 +37°C° 0 mm 1 mps 741 mmHg 39%
    14:00 +36°C° 0.1 mm 1 mps 740 mmHg 41%
    15:00 +35°C° 0.1 mm 1 mps 740 mmHg 43%
    16:00 +35°C° 0.1 mm 1 mps 740 mmHg 45%
    17:00 +33°C° 0.1 mm 1 mps 740 mmHg 52%
    18:00 +31°C° 0.1 mm 1 mps 740 mmHg 59%
    19:00 +29°C° 0.1 mm 1 mps 741 mmHg 67%
    20:00 +28°C° 0 mm 1 mps 741 mmHg 71%
    21:00 +27°C° 0 mm 1 mps 741 mmHg 76%
    22:00 +26°C° 0 mm 1 mps 741 mmHg 80%
    23:00 +26°C° 0 mm 1 mps 741 mmHg 82%
    Show more